EHI
0 0 0 0 0 0 0 0 0 0 0 0 0 0 0 0 0 0 0 0 1 1 1 1 1 1 1 1 2 2 2 1 0 0 0 0 0 0 1 5 7 8 8
0 0 0 0 0 0 0 0 0 0 0 0 0 0 0 0 0 0 0 0 1 1 3 3 4 4 3 2 2 4 4 2 0 0 0 0 0 0 1 3 7 9 9
0 0 0 0 0 0 0 0 0 0 0 0 0 0 0 0 0 0 0 0 0 2 4 6 8 9 7 4 3 5 7 6 3 1 1 1 1 0 0 1 3 5 5
0 0 0 0 0 0 0 0 0 0 0 0 0 0 0 0 0 0 0 0 0 1 2 5 7 10 10 7 4 4 7 11 10 5 2 2 3 2 0 0 0 0 0
0 0 0 0 0 0 0 0 0 0 0 0 0 0 0 0 0 0 0 0 0 0 0 1 3 5 9 9 5 3 5 10 12 9 3 2 3 3 1 0 0 0 0
0 0 0 0 0 0 0 0 0 0 0 0 0 0 0 0 0 0 0 0 0 0 0 0 0 1 5 7 5 3 2 6 8 7 3 2 3 2 0 0 0 0 0
0 0 0 0 0 0 0 0 0 0 0 0 0 0 0 0 0 0 0 0 0 0 0 0 0 0 1 3 3 1 1 2 3 3 1 2 3 1 0 0 0 0 0
0 0 0 0 0 0 0 0 0 0 0 0 0 0 0 0 0 0 0 0 0 0 0 0 0 0 0 0 0 0 1 2 2 2 2 2 2 1 0 0 0 0 0
0 0 0 0 0 0 0 0 0 0 0 0 0 0 0 0 0 0 0 0 0 0 0 0 0 0 0 0 0 0 1 3 5 8 10 7 3 1 0 0 0 0 0
0 0 0 0 0 0 0 0 0 0 0 0 0 0 0 0 0 0 0 0 0 0 0 0 0 0 0 0 0 0 0 2 6 12 14 9 4 1 0 0 0 0 0
0 0 0 0 0 0 0 0 0 0 0 0 0 0 0 0 0 0 0 0 0 0 0 0 0 0 0 0 0 0 0 0 3 7 8 5 2 1 0 0 0 0 0
0 0 0 0 0 0 0 0 0 0 0 0 0 0 0 0 0 0 0 0 0 0 0 0 0 0 0 0 0 0 0 0 0 1 1 1 1 0 0 0 0 0 0
0 0 0 0 0 0 0 0 0 0 0 0 0 0 0 0 0 0 0 0 0 0 0 0 0 0 0 0 0 0 0 0 0 0 0 0 0 0 0 0 0 0 0
0 0 0 0 0 0 0 0 0 0 0 0 0 0 0 0 0 0 0 0 0 0 0 0 0 0 0 0 0 0 0 0 0 0 0 0 0 0 0 0 0 0 0
0 0 0 0 0 0 0 0 0 0 0 0 0 0 0 0 0 0 0 0 0 0 0 0 0 0 0 0 0 0 0 0 0 0 0 0 0 0 0 0 0 0 0
0 0 0 0 0 0 0 0 0 0 0 0 0 0 0 0 0 0 0 0 0 0 0 0 0 0 0 0 0 0 0 0 0 0 0 0 0 0 0 0 0 0 0
0 0 0 0 0 0 0 0 0 0 0 0 0 0 0 0 0 0 0 0 0 0 0 0 0 0 0 0 0 0 0 0 0 0 0 0 0 0 0 0 0 0 0
0 0 0 0 0 0 0 0 0 0 0 0 0 0 0 0 0 0 0 0 0 0 0 0 0 0 0 0 0 0 0 0 0 0 0 0 0 0 0 0 0 0 0
0 0 0 0 0 0 0 0 0 0 0 0 0 0 0 0 0 0 0 0 0 0 0 0 0 0 0 0 0 0 0 0 0 0 0 0 0 0 0 0 0 0 0
0 0 0 0 0 0 0 0 0 0 0 0 0 0 0 0 0 0 0 0 0 0 0 0 0 0 0 0 0 0 0 0 0 0 0 0 0 0 0 0 0 0 0
0 0 0 0 0 0 0 0 0 0 0 0 0 0 0 0 0 0 0 0 0 0 0 0 0 0 0 0 0 0 0 0 0 0 0 0 0 0 0 0 0 0 0
0 0 0 0 0 0 0 0 0 0 0 0 0 0 0 0 0 0 0 0 0 0 0 0 0 0 0 0 0 0 0 0 0 0 0 0 0 0 0 0 0 0 0
0 0 0 0 0 0 0 0 0 0 0 0 0 0 0 0 0 0 0 0 0 0 0 0 0 0 0 0 0 0 0 0 0 0 0 0 0 0 0 0 0 0 0
0 0 0 0 0 0 0 0 0 0 0 0 0 0 0 0 0 0 0 0 0 0 0 0 0 0 0 0 0 0 0 0 0 0 0 0 0 0 0 0 0 0 0
0 0 0 0 0 0 0 0 0 0 0 0 0 0 0 0 0 0 0 0 0 0 0 0 0 0 0 0 0 0 0 0 0 0 0 0 0 0 0 0 0 0 0
0 0 0 0 0 0 0 0 0 0 0 0 0 0 0 0 0 0 0 0 0 0 0 0 0 0 0 0 0 0 0 0 0 0 0 0 0 0 0 0 0 0 0
Wind_Speed
3 3 2 3 3 3 3 3 3 4 5 5 5 4 4 4 4 3 3 10 13 13 14 14 14 14 15 15 14 14 14 14 12 10 8 7 6 5 4 4 5 6 7
2 2 1 2 3 3 3 3 3 3 3 2 4 5 5 5 4 4 3 4 9 12 14 16 16 17 17 17 16 16 16 16 15 13 11 9 8 6 4 3 3 4 5
3 2 2 2 1 1 1 1 2 2 3 3 4 5 4 5 5 5 4 3 4 9 13 14 16 17 18 18 18 19 19 19 18 16 14 12 10 8 6 4 3 3 4
5 4 4 4 4 4 3 3 4 4 4 4 4 4 4 4 5 6 5 4 4 5 8 13 15 16 17 18 20 21 22 20 19 18 16 14 12 10 8 6 4 3 3
8 5 4 3 4 4 4 4 3 3 4 5 5 4 4 5 6 8 7 8 7 6 6 10 14 15 16 17 18 21 22 22 20 19 18 16 13 11 9 8 7 5 3
7 5 4 5 4 3 3 3 3 3 3 4 6 6 5 5 5 5 7 7 7 8 8 7 7 9 14 15 16 18 21 21 20 19 19 18 14 12 11 10 9 7 6
7 6 5 5 4 3 4 4 3 3 4 4 4 5 5 4 4 5 5 6 8 8 8 8 6 6 6 13 14 17 20 21 20 20 21 20 16 14 13 12 11 9 8
7 7 6 5 5 4 6 5 4 3 3 4 3 4 6 5 3 5 6 8 9 7 8 10 8 7 6 5 8 14 15 17 20 20 21 21 19 17 15 14 13 12 10
7 7 7 6 6 5 4 4 4 3 2 2 1 1 3 5 6 3 4 6 6 6 7 7 7 7 7 5 5 10 14 13 13 17 17 18 19 18 17 16 15 14 13
7 7 6 6 5 4 3 3 3 1 1 2 2 2 3 4 5 5 3 3 6 7 7 8 7 7 6 4 6 10 13 13 13 12 11 11 13 16 17 17 16 15 15
6 6 5 4 4 2 2 2 2 2 1 2 2 3 4 4 5 6 7 4 5 5 6 7 6 6 6 5 5 8 12 11 10 10 9 8 8 10 13 14 14 15 16
4 6 5 4 3 3 3 2 3 3 3 3 3 3 3 3 4 5 7 8 7 6 8 7 7 6 5 5 7 13 13 11 7 5 4 4 5 6 8 10 12 14 16
3 5 5 5 4 4 4 3 3 4 4 4 4 4 4 5 5 5 7 8 8 6 6 6 6 5 6 4 5 14 13 12 9 6 6 6 6 8 9 10 12 14 16
3 4 5 5 5 5 5 4 4 4 5 5 6 6 5 5 5 5 6 8 9 6 5 7 5 5 5 4 7 12 8 12 11 9 9 9 9 9 9 11 12 14 16
3 4 5 5 5 5 5 5 3 4 5 4 6 6 5 5 5 6 6 6 7 8 7 6 4 4 4 4 8 5 5 11 13 12 11 9 9 9 10 12 14 16 17
4 5 5 4 4 4 4 3 2 3 5 5 5 7 7 6 6 6 6 6 7 9 8 4 5 6 7 8 11 6 6 15 12 11 10 8 8 10 12 15 17 19 20
4 4 4 2 2 2 2 2 3 5 6 7 8 8 9 9 7 6 6 6 6 7 10 7 5 7 7 8 8 6 6 4 4 7 6 6 9 12 15 17 20 22 23
4 4 3 1 1 1 0 2 4 6 7 9 10 9 11 9 8 7 6 7 7 7 8 10 7 6 7 8 8 7 4 2 2 2 3 7 10 14 17 20 23 25 26
4 4 3 3 3 3 2 2 4 6 7 9 10 10 11 10 10 7 6 6 6 7 6 8 9 7 6 6 6 4 1 1 1 1 4 7 11 16 20 23 25 28 29
4 5 4 4 4 3 2 3 5 6 8 9 10 10 10 10 10 7 6 6 6 7 7 9 9 8 7 5 4 3 2 2 1 2 4 7 11 17 21 25 30 32 32
5 5 5 4 3 2 1 4 5 8 8 10 10 10 10 15 15 9 8 8 8 8 9 9 9 8 7 5 4 2 3 3 1 2 3 4 7 9 14 23 29 29 26
5 5 5 4 3 1 2 8 10 7 9 10 10 9 11 12 13 16 17 17 16 13 12 11 9 9 8 5 3 3 4 3 1 1 2 5 7 10 13 17 19 6 9
4 5 4 2 1 1 3 8 15 10 9 10 10 9 10 11 13 8 14 19 18 21 21 15 12 11 8 5 5 5 3 3 2 2 2 4 7 9 13 18 26 20 20
3 3 3 1 1 1 4 9 17 10 9 9 9 10 11 12 10 11 13 13 13 14 15 11 9 8 6 4 5 6 8 7 4 3 3 4 6 7 12 14 32 33 32
2 3 2 2 1 3 7 12 17 8 8 10 10 10 11 11 13 17 13 12 14 12 12 8 3 4 8 11 11 9 7 6 4 3 4 3 4 6 9 13 21 36 38
4 5 4 3 3 4 9 13 18 7 9 9 9 10 13 12 16 17 11 10 12 10 7 3 8 11 10 11 10 6 5 5 4 3 3 2 4 5 6 10 13 15 20
Wind_Direction
200 206 214 228 241 240 233 242 252 260 260 259 260 268 274 272 267 257 262 250 237 238 246 252 254 254 256 255 253 251 249 248 248 244 241 243 252 263 280 297 298 289 280
143 154 197 230 252 245 224 219 227 237 252 276 304 320 314 311 304 303 287 273 260 253 253 257 261 264 267 262 254 250 248 245 243 238 232 229 233 243 259 285 321 331 320
112 106 76 41 339 311 290 309 335 354 1 359 344 332 323 316 312 309 301 282 278 274 268 265 266 269 270 268 260 251 246 243 241 237 232 226 224 226 233 246 274 318 343
44 50 45 29 18 27 24 27 22 10 5 356 332 314 316 315 311 309 304 299 291 289 287 281 279 277 276 272 266 259 250 245 241 238 234 228 224 220 218 222 233 262 312
45 54 53 40 40 45 34 23 20 10 353 345 324 320 333 327 321 324 321 315 309 302 294 291 294 297 294 286 280 272 262 251 244 241 239 234 227 219 215 214 216 225 257
35 37 33 27 32 42 30 25 21 12 2 344 332 331 315 311 318 322 319 322 322 318 315 309 307 306 306 302 293 284 272 261 250 246 243 239 230 221 215 213 211 216 232
22 24 13 5 9 25 27 25 17 15 13 356 348 325 309 302 316 321 331 334 327 324 322 318 314 307 309 307 297 286 274 264 251 242 241 238 233 227 221 215 210 212 222
20 22 15 11 15 24 28 28 31 22 4 16 3 328 318 318 319 339 333 321 317 319 323 327 329 335 333 327 324 320 303 280 265 249 237 233 230 228 226 220 218 220 223
24 24 26 31 28 32 27 24 41 35 354 347 27 307 302 292 314 270 298 301 313 323 327 324 334 342 345 347 340 344 349 342 301 274 258 239 230 229 228 228 231 234 235
23 28 36 31 27 29 26 6 39 9 331 302 291 234 238 264 290 299 293 297 312 310 306 309 313 314 322 317 321 335 349 354 348 326 298 275 249 235 231 232 235 240 246
17 21 29 24 19 14 1 346 329 311 267 254 251 252 258 265 257 283 298 288 282 273 278 286 286 288 292 291 289 313 341 342 341 340 333 317 296 262 244 239 240 248 255
357 3 9 5 349 335 319 306 295 298 287 277 269 253 249 258 272 276 289 295 289 281 279 280 279 275 274 275 290 317 321 319 309 302 301 293 290 282 267 258 254 256 261
339 339 346 332 325 315 309 309 307 306 301 300 288 275 261 253 257 271 283 290 288 284 273 272 267 267 276 270 284 300 303 298 282 253 237 235 241 251 259 264 263 262 263
295 305 318 319 316 316 326 330 327 324 326 314 306 295 281 273 267 266 272 286 291 280 263 270 276 263 268 267 270 289 284 282 272 245 225 222 228 242 253 262 265 266 266
302 321 321 322 325 335 345 352 353 344 337 323 307 298 288 278 274 269 265 267 279 289 288 278 276 270 268 270 276 273 259 270 263 236 218 216 229 247 259 265 266 266 265
305 317 323 333 350 13 28 30 0 337 330 310 299 296 289 282 277 271 265 262 262 273 281 266 271 278 284 288 291 285 271 279 255 222 209 220 242 258 267 271 271 269 266
304 309 316 340 31 58 43 15 334 324 316 306 301 299 292 286 279 273 266 264 261 264 276 279 271 280 278 278 285 281 274 254 224 204 214 245 263 271 275 276 275 271 267
300 299 297 283 184 151 150 332 323 323 311 309 306 302 297 297 284 275 269 264 263 259 268 282 287 283 274 272 274 275 267 218 166 191 275 284 287 288 287 283 277 271 266
303 303 283 248 223 204 229 300 307 304 302 303 302 299 296 297 294 284 275 273 272 274 265 279 283 277 273 268 268 262 182 81 86 2 324 311 307 302 295 287 279 272 263
300 297 280 252 232 215 237 303 307 300 299 302 300 296 294 293 288 286 290 283 285 284 277 276 278 276 271 263 248 226 152 92 49 4 342 327 315 310 303 296 287 274 259
308 303 295 275 253 221 266 321 314 312 309 306 303 299 299 304 304 311 310 299 294 287 283 277 274 272 265 254 237 178 141 131 69 346 308 321 320 316 315 307 296 275 250
307 309 307 295 279 230 341 335 332 313 308 305 302 303 306 305 307 315 312 305 296 289 283 274 268 260 256 241 205 154 140 149 152 332 329 339 342 335 327 318 318 298 177
295 303 307 303 244 254 335 332 335 330 307 303 301 304 309 306 309 300 307 306 297 289 282 273 260 250 242 217 172 150 134 112 94 343 326 1 350 343 338 347 18 62 91
287 300 315 11 117 322 332 329 335 327 303 300 300 298 299 301 301 311 310 300 295 293 288 280 252 238 221 179 149 132 125 107 81 24 13 31 354 349 350 5 30 54 72
328 355 12 33 351 314 324 331 339 317 310 307 305 304 302 299 306 315 311 302 301 302 307 309 241 155 140 133 132 126 131 127 103 40 16 41 346 344 5 19 31 50 63
40 33 18 356 341 322 325 335 338 322 317 315 312 307 307 307 312 315 309 299 300 307 321 29 80 89 98 101 99 110 128 129 116 95 24 36 352 350 21 25 31 39 55